Flag for Slovenia Weather past 2 weeks in Ljubljana, Slovenia

53 °F


Feels Like: 53 °F
Forecast: 48 / 58 °F
Wind: No wind

Location: Ljubljana / Bezigrad

Current Time: Oct 9, 2015 at 4:15:40 AM

Latest Report: Oct 9, 2015 at 3:00 AM

Visibility: N/A

Pressure: 30.10 "Hg

Humidity: 100%

Dew point: 53 °F

Location of LjubljanaLocation

Historic Weather in Ljubljana — Graph


Ljubljana temperature yesterday

Maximum temperature yesterday: 64 °F (at 4:00 PM)
Minimum temperature yesterday: 55 °F (at 6:00 AM)
Average temperature yesterday: 58 °F

Past Weeks' High & Low Weather Summary

High71 °F (Oct 5, 4:00 PM)100% (Sep 25, 12:00 AM)30.45 "Hg (Sep 25, 12:00 AM)
Low45 °F (Sep 28, 7:00 AM)41% (Sep 28, 12:00 PM)29.79 "Hg (Oct 7, 6:00 AM)
Average56 °F80%30.16 "Hg
* Reported Sep 24 3:00 AM — Oct 9 3:00 AM, Ljubljana, Weather by CustomWeather, © 2015

Note: Actual official high and low records may vary slightly from our data, if they occured in-between our weather recording intervals... More about our weather records


Ljubljana weather history for previous 24 hours

Time TempWeatherWind HumidityBarometerVisibility
3:00 AM
Fri, Oct 9
53 °FCool.No wind100%30.10 "HgN/A
2:00 AM54 °FCool.No wind100%30.11 "HgN/A
1:00 AM54 °FCool.1 mph100%30.11 "HgN/A
12:00 AM54 °FCool.No wind100%30.11 "HgN/A
10:00 PM
Thu, Oct 8
56 °FPassing clouds.No wind99%30.09 "Hg12 mi
9:00 PM58 °FPassing clouds.No wind95%30.07 "Hg16 mi
8:00 PM58 °FPassing clouds.1 mph89%30.06 "Hg19 mi
7:00 PM60 °FPassing clouds.1 mph83%30.04 "Hg25 mi
6:00 PM62 °FPartly sunny.1 mph77%30.02 "Hg25 mi
5:00 PM63 °FOvercast.1 mph76%30.01 "Hg25 mi
4:00 PM64 °FOvercast.2 mph76%30.01 "Hg19 mi
3:00 PM62 °FOvercast.1 mph79%30.01 "Hg12 mi
2:00 PM62 °FLight rain. Overcast.1 mph76%30.01 "Hg12 mi
1:00 PM61 °FLight rain. Overcast.No wind82%30.02 "Hg12 mi
12:00 PM60 °FLight rain. Low clouds.1 mph89%30.02 "Hg6 mi
11:00 AM58 °FLight rain. Low clouds.1 mph95%30.02 "Hg6 mi
10:00 AM56 °FLight rain. Low clouds.1 mph99%30.02 "Hg3 mi
9:00 AM56 °FLight rain. Low clouds.1 mph100%30.01 "Hg4 mi
8:00 AM55 °FLight rain. Low clouds.No wind100%29.99 "Hg4 mi
7:00 AM55 °FLight rain. Low clouds.No wind100%29.98 "Hg4 mi
6:00 AM55 °FLight rain. Low clouds.No wind100%29.97 "Hg4 mi
5:00 AM55 °FLight rain. Overcast.1 mph100%29.97 "Hg4 mi
4:00 AM56 °FCool.No wind100%29.96 "HgN/A
Weather by CustomWeather, © 2015

See weather overviewHow to use our weather pages